Location: Newark
(42.8334°N, 7.7197°W)
Time: 22:28:25
(UTC+00:00)

Envisat - Visible Passes

Search period start: 20 November 2019 00:00
Search period end: 30 November 2019 00:00
Orbit: 764 x 766 km, 98.1° (Epoch: 20 November)

Date Brightness Start Highest point End Pass type
(mag) Time Alt. Az. Time Alt. Az. Time Alt. Az.
20 Nov 2.9 18:19:51 10° SSE 18:24:54 75° ENE 18:30:00 10° N visible
20 Nov 6.0 20:02:09 10° WSW 20:04:30 13° W 20:06:50 10° WNW visible
21 Nov 5.6 06:28:33 10° NE 06:32:40 24° E 06:36:46 10° SSE visible
21 Nov 3.6 17:43:44 10° SE 17:48:18 35° ENE 17:52:54 10° N visible
21 Nov 4.9 19:22:59 10° SSW 19:27:20 29° W 19:31:44 10° NW visible
22 Nov 6.4 05:54:20 10° ENE 05:55:29 11° E 05:56:38 10° E visible
22 Nov 3.4 18:45:23 10° S 18:50:24 63° W 18:55:28 10° NNW visible
23 Nov 4.5 06:53:31 10° NNE 06:58:21 42° E 07:03:08 10° SSE visible
23 Nov 3.0 18:08:41 10° SSE 18:13:40 60° ENE 18:18:40 10° N visible
23 Nov 5.8 19:49:52 10° SW 19:53:05 17° W 19:56:18 10° NW visible
24 Nov 5.9 06:17:40 10° NE 06:21:18 19° E 06:24:55 10° SE visible
24 Nov 3.8 17:32:49 10° SE 17:37:07 28° ENE 17:41:25 10° N visible
24 Nov 4.5 19:11:21 10° SSW 19:16:00 36° W 19:20:41 10° NNW visible
25 Nov 3.1 18:34:03 10° S 18:39:07 80° WSW 18:44:14 10° NNW visible
26 Nov 5.0 06:42:25 10° NNE 06:47:00 33° E 06:51:34 10° SSE visible
26 Nov 3.2 17:57:35 10° SE 18:02:26 47° ENE 18:07:18 10° N visible
26 Nov 5.4 19:37:54 10° SW 19:41:42 21° W 19:45:31 10° NW visible
27 Nov 6.0 06:06:56 10° NE 06:09:54 15° E 06:12:50 10° SE visible
27 Nov 4.1 18:59:49 10° S 19:04:41 45° W 19:09:34 10° NNW visible
28 Nov 2.9 18:22:47 10° SSE 18:27:51 82° ENE 18:32:57 10° N visible
28 Nov 6.1 20:05:39 10° WSW 20:07:29 12° W 20:09:19 10° WNW visible
29 Nov 5.4 06:31:23 10° NE 06:35:39 27° E 06:39:54 10° SSE visible
29 Nov 3.5 17:46:34 10° SE 17:51:13 38° ENE 17:55:54 10° N visible
29 Nov 5.1 19:26:05 10° SSW 19:30:19 26° W 19:34:35 10° NW visible
